User: anonymous   Login
Location: Ahausen
(50.4985°N, 8.2722°E)
Time: 14:06:27
(UTC+00:00)
Language:

Cosmos 1025 Rocket - Orbit

View from above orbital plane
View from above orbital plane
View from above satellite
View from above satellite

Ground track
Ground track

The orbit data is extracted from the following two-line orbital elements,

1 10974U 78067B   20339.92582236  .00000139  00000-0  12610-4 0  9990
2 10974  82.4840  49.3824 0018931 104.2857 256.0464 14.87373050295841
Epoch (UTC): 04 December 2020 22:13:11
Eccentricity: 0.0018931
inclination: 82.4840°
perigee height: 593 km
apogee height: 619 km
right ascension of ascending node: 49.3824°
argument of perigee: 104.2857°
revolutions per day: 14.87373050
mean anomaly at epoch: 256.0464°
orbit number at epoch: 29584

The dashed part of the orbit path shows where the satellite is in the earth's shadow,  

DLR